Location: Boćki
(52.6512°N, 23.0459°E)
Time: 12:25:43
(UTC+02:00)

ISS - Pass Details

Date: 26 March 2019
Orbit: 408 x 410 km, 51.6° (Epoch: 25 April)

Event Time Altitude Azimuth Distance (km) Brightness Sun altitude
Rises 21:00:34 0° 272° (W) 2,337 0.7 -26.3°
Reaches altitude 10° 21:02:39 10° 271° (W) 1,475 -0.5 -26.6°
Enters shadow 21:03:18 15° 270° (W) 1,214 -1.0 -26.6°
